Home > Weather > Antofagasta > Past weeks

Flag for Chile Past Weather in Antofagasta, Chile — Yesterday and Last 2 Weeks

Now
57 °F

Partly sunny.


Feels Like: 57 °F
Forecast: 57 / 65 °F
Wind: 2 mph from Southwest

Location: Antofagasta Airport

Current Time: Jul 28, 2016 at 8:31:15 AM

Latest Report: Jul 28, 2016 at 8:00 AM


Visibility: N/A

Pressure: 29.98 "Hg

Humidity: 77%

Dew Point: 50 °F

Location of AntofagastaLocation

Past Weather in Antofagasta — Graph

°F

Antofagasta Temperature Yesterday

Maximum temperature yesterday: 68 °F (at 1:00 PM)
Minimum temperature yesterday: 57 °F (at 12:00 AM)
Average temperature yesterday: 60 °F

High & Low Weather Summary for the Past Weeks

 TemperatureHumidityPressure
High68 °F (Jul 27, 1:00 PM)94% (Jul 16, 7:00 AM)30.15 "Hg (Jul 16, 7:00 AM)
Low50 °F (Jul 16, 5:00 AM)49% (Jul 21, 12:00 PM)29.86 "Hg (Jul 26, 4:00 PM)
Average57 °F75%30.02 "Hg
* Reported Jul 13 7:00 AM — Jul 28 7:00 AM, Antofagasta, Weather by CustomWeather, © 2016

Note: Actual official high and low records may vary slightly from our data, if they occured in-between our weather recording intervals... More about our weather records

Advertising

Antofagasta Weather History for the Previous 24 Hours

Scroll right to see more
 ConditionsComfort  
Time TempWeatherWind HumidityBarometerVisibility
7:00 AM
Thu, Jul 28
57 °FPartly sunny.5 mph88%29.98 "HgN/A
6:00 AM57 °FPartly cloudy.3 mph88%29.95 "HgN/A
5:00 AM57 °FPassing clouds.3 mph82%29.95 "HgN/A
4:00 AM57 °FPassing clouds.7 mph88%29.95 "HgN/A
3:00 AM57 °FPartly cloudy.6 mph88%29.98 "HgN/A
2:00 AM57 °FPartly cloudy.7 mph88%29.98 "HgN/A
1:00 AM57 °FPartly cloudy.6 mph88%29.98 "HgN/A
12:00 AM57 °FPartly cloudy.8 mph82%29.98 "HgN/A
11:00 PM
Wed, Jul 27
57 °FPassing clouds.8 mph88%29.98 "HgN/A
10:00 PM59 °FPassing clouds.9 mph82%29.95 "HgN/A
9:00 PM59 °FPassing clouds.8 mph82%29.95 "HgN/A
8:00 PM59 °FPassing clouds.8 mph82%29.95 "HgN/A
7:00 PM59 °FPassing clouds.7 mph77%29.95 "HgN/A
6:00 PM59 °FPassing clouds.9 mph77%29.92 "HgN/A
5:00 PM61 °FPassing clouds.9 mph72%29.92 "HgN/A
4:00 PM63 °FPassing clouds.10 mph68%29.92 "HgN/A
3:00 PM63 °FScattered clouds.13 mph68%29.92 "HgN/A
2:00 PM66 °FPassing clouds.9 mph52%29.92 "HgN/A
1:00 PM68 °FPassing clouds.10 mph49%29.95 "HgN/A
12:00 PM64 °FPartly sunny.10 mph56%29.98 "HgN/A
11:00 AM61 °FPartly sunny.1 mph77%30.01 "HgN/A
10:00 AM59 °FPartly sunny.3 mph88%30.01 "HgN/A
9:00 AM59 °FPartly sunny.2 mph82%29.98 "HgN/A
8:00 AM57 °FPartly sunny.2 mph88%29.95 "HgN/A
Weather by CustomWeather, © 2016

See weather overviewHow to use our weather pages